Time,TemperatureF,DewpointF,PressureIn,WindDirection,WindDirectionDegrees,WindSpeedMPH,WindSpeedGustMPH,Humidity,HourlyPrecipIn,Conditions,Clouds,dailyrainin,SolarRadiationWatts/m^2,SoftwareType,DateUTC
2013-03-02 00:03:00,50.1,43.8,31.15,NNE,28,0.0,0.0,79,0.00,,,0.00,0,Wunderground v.1.15,2013-03-02 08:03:00,
2013-03-02 00:10:00,49.9,43.6,31.15,NNE,28,0.0,0.0,79,0.00,,,0.00,0,Wunderground v.1.15,2013-03-02 08:10:00,
2013-03-02 00:16:00,49.8,43.5,31.15,NNE,28,0.0,0.0,79,0.00,,,0.00,0,Wunderground v.1.15,2013-03-02 08:16:00,
2013-03-02 00:22:00,49.9,44.0,31.15,NNE,28,0.0,0.0,80,0.00,,,0.00,0,Wunderground v.1.15,2013-03-02 08:22:00,
2013-03-02 00:28:00,49.9,44.3,31.15,NNE,28,0.0,0.0,81,0.00,,,0.00,0,Wunderground v.1.15,2013-03-02 08:28:00,
2013-03-02 00:34:00,49.9,44.3,31.15,NNE,28,0.0,0.0,81,0.00,,,0.00,0,Wunderground v.1.15,2013-03-02 08:34:00,
2013-03-02 00:40:00,49.9,44.3,31.15,NNE,28,0.0,0.0,81,0.00,,,0.00,0,Wunderground v.1.15,2013-03-02 08:40:00,
2013-03-02 00:45:00,49.7,44.1,31.15,NNE,28,0.0,0.0,81,0.00,,,0.00,0,Wunderground v.1.15,2013-03-02 08:45:00,
2013-03-02 00:52:00,49.7,44.1,31.15,NNE,28,0.0,0.0,81,0.00,,,0.00,0,Wunderground v.1.15,2013-03-02 08:52:00,
2013-03-02 00:58:00,49.9,44.6,31.15,NNE,28,0.0,0.0,82,0.00,,,0.00,0,Wunderground v.1.15,2013-03-02 08:58:00,
2013-03-02 01:04:00,49.9,44.6,31.15,NNE,28,0.0,0.0,82,0.00,,,0.00,0,Wunderground v.1.15,2013-03-02 09:04:00,
2013-03-02 01:10:00,49.9,44.6,31.15,NNE,28,0.0,0.0,82,0.00,,,0.00,0,Wunderground v.1.15,2013-03-02 09:10:00,
2013-03-02 01:16:00,49.9,44.6,31.15,NNE,28,0.0,0.0,82,0.00,,,0.00,0,Wunderground v.1.15,2013-03-02 09:16:00,
2013-03-02 01:22:00,49.9,44.6,31.15,NNE,28,0.0,0.0,82,0.00,,,0.00,0,Wunderground v.1.15,2013-03-02 09:22:00,
2013-03-02 01:28:00,49.8,44.5,31.15,NNE,28,0.0,0.0,82,0.00,,,0.00,0,Wunderground v.1.15,2013-03-02 09:28:00,
2013-03-02 01:33:00,49.8,44.8,31.14,NNE,28,0.0,0.0,83,0.00,,,0.00,0,Wunderground v.1.15,2013-03-02 09:33:00,
2013-03-02 01:40:00,49.9,44.9,31.15,NNE,28,0.0,0.0,83,0.00,,,0.00,0,Wunderground v.1.15,2013-03-02 09:40:00,
2013-03-02 01:46:00,49.9,44.9,31.14,NNE,28,0.0,0.0,83,0.00,,,0.00,0,Wunderground v.1.15,2013-03-02 09:46:00,
2013-03-02 01:52:00,49.9,44.9,31.15,NNE,28,0.0,0.0,83,0.00,,,0.00,0,Wunderground v.1.15,2013-03-02 09:52:00,
2013-03-02 01:58:00,49.9,44.9,31.14,NNE,28,0.0,0.0,83,0.00,,,0.00,0,Wunderground v.1.15,2013-03-02 09:58:00,
2013-03-02 02:04:00,50.1,45.1,31.14,NNE,28,0.0,0.0,83,0.00,,,0.00,0,Wunderground v.1.15,2013-03-02 10:04:00,
2013-03-02 02:10:00,50.1,45.1,31.14,NNE,28,0.0,0.0,83,0.00,,,0.00,0,Wunderground v.1.15,2013-03-02 10:10:00,
2013-03-02 02:16:00,50.0,45.0,31.13,NNE,28,0.0,0.0,83,0.00,,,0.00,0,Wunderground v.1.15,2013-03-02 10:16:00,
2013-03-02 02:22:00,49.9,44.9,31.13,NNE,28,0.0,0.0,83,0.00,,,0.00,0,Wunderground v.1.15,2013-03-02 10:22:00,
2013-03-02 02:28:00,49.8,44.8,31.13,NNE,28,0.0,0.0,83,0.00,,,0.00,0,Wunderground v.1.15,2013-03-02 10:28:00,
2013-03-02 02:36:00,49.8,44.8,31.12,NNE,28,0.0,0.0,83,0.00,,,0.00,0,Wunderground v.1.15,2013-03-02 10:36:00,
2013-03-02 02:42:00,49.7,44.7,31.12,NNE,28,0.0,0.0,83,0.00,,,0.00,0,Wunderground v.1.15,2013-03-02 10:42:00,
2013-03-02 02:48:00,49.7,44.7,31.12,NNE,28,0.0,0.0,83,0.00,,,0.00,0,Wunderground v.1.15,2013-03-02 10:48:00,
2013-03-02 02:54:00,49.5,44.6,31.12,NNE,28,0.0,0.0,83,0.00,,,0.00,0,Wunderground v.1.15,2013-03-02 10:54:00,
2013-03-02 02:59:00,49.3,44.4,31.11,NNE,28,0.0,0.0,83,0.00,,,0.00,0,Wunderground v.1.15,2013-03-02 10:59:00,
2013-03-02 03:06:00,49.2,44.3,31.11,NNE,28,0.0,0.0,83,0.00,,,0.00,0,Wunderground v.1.15,2013-03-02 11:06:00,
2013-03-02 03:12:00,49.2,44.6,31.11,NNE,28,0.0,0.0,84,0.00,,,0.00,0,Wunderground v.1.15,2013-03-02 11:12:00,
2013-03-02 03:18:00,49.3,44.7,31.10,NNE,28,0.0,0.0,84,0.00,,,0.00,0,Wunderground v.1.15,2013-03-02 11:18:00,
2013-03-02 03:24:00,49.5,44.9,31.10,NNE,28,0.0,0.0,84,0.00,,,0.00,0,Wunderground v.1.15,2013-03-02 11:24:00,
2013-03-02 03:30:00,49.5,44.9,31.10,NNE,28,0.0,0.0,84,0.00,,,0.00,0,Wunderground v.1.15,2013-03-02 11:30:00,
2013-03-02 03:35:00,49.6,45.0,31.10,NNE,28,0.0,0.0,84,0.00,,,0.00,0,Wunderground v.1.15,2013-03-02 11:35:00,
2013-03-02 03:42:00,49.5,44.9,31.10,NNE,28,0.0,0.0,84,0.00,,,0.00,0,Wunderground v.1.15,2013-03-02 11:42:00,
2013-03-02 03:48:00,49.5,44.9,31.10,NNE,28,0.0,0.0,84,0.00,,,0.00,0,Wunderground v.1.15,2013-03-02 11:48:00,
2013-03-02 03:54:00,49.4,44.8,31.10,NNE,28,0.0,0.0,84,0.00,,,0.00,0,Wunderground v.1.15,2013-03-02 11:54:00,
2013-03-02 04:00:00,49.2,44.6,31.10,NNE,28,0.0,0.0,84,0.00,,,0.00,0,Wunderground v.1.15,2013-03-02 12:00:00,
2013-03-02 04:06:00,49.2,44.6,31.10,NNE,28,0.0,0.0,84,0.00,,,0.00,0,Wunderground v.1.15,2013-03-02 12:06:00,
2013-03-02 04:11:00,49.0,44.4,31.10,NNE,28,0.0,0.0,84,0.00,,,0.00,0,Wunderground v.1.15,2013-03-02 12:11:00,
2013-03-02 04:18:00,48.9,44.3,31.10,NNE,28,0.0,0.0,84,0.00,,,0.00,0,Wunderground v.1.15,2013-03-02 12:18:00,
2013-03-02 04:23:00,48.8,44.2,31.10,NNE,28,0.0,0.0,84,0.00,,,0.00,0,Wunderground v.1.15,2013-03-02 12:23:00,
2013-03-02 04:30:00,48.7,44.1,31.10,NNE,28,0.0,0.0,84,0.00,,,0.00,0,Wunderground v.1.15,2013-03-02 12:30:00,
2013-03-02 04:36:00,48.7,44.1,31.10,NNE,28,0.0,0.0,84,0.00,,,0.00,0,Wunderground v.1.15,2013-03-02 12:36:00,
2013-03-02 04:42:00,48.6,44.0,31.10,NNE,28,0.0,0.0,84,0.00,,,0.00,0,Wunderground v.1.15,2013-03-02 12:42:00,
2013-03-02 04:47:00,48.5,43.9,31.10,NNE,28,0.0,0.0,84,0.00,,,0.00,0,Wunderground v.1.15,2013-03-02 12:47:00,
2013-03-02 04:54:00,48.5,43.9,31.10,NNE,28,0.0,0.0,84,0.00,,,0.00,0,Wunderground v.1.15,2013-03-02 12:54:00,
2013-03-02 05:00:00,48.5,43.9,31.09,NNE,28,0.0,0.0,84,0.00,,,0.00,0,Wunderground v.1.15,2013-03-02 13:00:00,
2013-03-02 05:05:00,48.4,43.8,31.10,NNE,28,0.0,0.0,84,0.00,,,0.00,0,Wunderground v.1.15,2013-03-02 13:05:00,
2013-03-02 05:12:00,48.3,43.7,31.10,NNE,28,0.0,0.0,84,0.00,,,0.00,0,Wunderground v.1.15,2013-03-02 13:12:00,
2013-03-02 05:18:00,48.2,43.6,31.10,NNE,28,0.0,0.0,84,0.00,,,0.00,0,Wunderground v.1.15,2013-03-02 13:18:00,
2013-03-02 05:24:00,48.1,43.5,31.10,NNE,28,0.0,0.0,84,0.00,,,0.00,0,Wunderground v.1.15,2013-03-02 13:24:00,
2013-03-02 05:30:00,48.1,43.8,31.10,NNE,28,0.0,0.0,85,0.00,,,0.00,0,Wunderground v.1.15,2013-03-02 13:30:00,
2013-03-02 05:36:00,48.0,43.4,31.10,NNE,28,0.0,0.0,84,0.00,,,0.00,0,Wunderground v.1.15,2013-03-02 13:36:00,
2013-03-02 05:41:00,48.0,43.7,31.10,NNE,28,0.0,0.0,85,0.00,,,0.00,0,Wunderground v.1.15,2013-03-02 13:41:00,
2013-03-02 05:47:00,48.0,43.7,31.10,NNE,28,0.0,0.0,85,0.00,,,0.00,0,Wunderground v.1.15,2013-03-02 13:47:00,
2013-03-02 05:53:00,48.0,43.7,31.10,NNE,28,0.0,0.0,85,0.00,,,0.00,0,Wunderground v.1.15,2013-03-02 13:53:00,
2013-03-02 06:00:00,48.0,43.7,31.10,NNE,28,0.0,0.0,85,0.00,,,0.00,0,Wunderground v.1.15,2013-03-02 14:00:00,
2013-03-02 06:06:00,47.9,43.6,31.09,NNE,28,0.0,0.0,85,0.00,,,0.00,0,Wunderground v.1.15,2013-03-02 14:06:00,
2013-03-02 06:12:00,47.9,43.6,31.09,NNE,28,0.0,0.0,85,0.00,,,0.00,0,Wunderground v.1.15,2013-03-02 14:12:00,
2013-03-02 06:18:00,47.8,43.5,31.09,NNE,28,0.0,0.0,85,0.00,,,0.00,0,Wunderground v.1.15,2013-03-02 14:18:00,
2013-03-02 06:24:00,47.8,43.5,31.09,NNE,28,0.0,0.0,85,0.00,,,0.00,0,Wunderground v.1.15,2013-03-02 14:24:00,
2013-03-02 06:30:00,47.7,43.4,31.09,NNE,28,0.0,0.0,85,0.00,,,0.00,0,Wunderground v.1.15,2013-03-02 14:30:00,
2013-03-02 06:35:00,47.7,43.4,31.09,NNE,28,0.0,0.0,85,0.00,,,0.00,0,Wunderground v.1.15,2013-03-02 14:35:00,
2013-03-02 06:42:00,47.7,43.4,31.09,NNE,28,0.0,0.0,85,0.00,,,0.00,5,Wunderground v.1.15,2013-03-02 14:42:00,
2013-03-02 06:48:00,47.7,43.4,31.09,NNE,28,0.0,0.0,85,0.00,,,0.00,11,Wunderground v.1.15,2013-03-02 14:48:00,
2013-03-02 06:54:00,47.8,44.7,31.09,NNE,28,0.0,0.0,89,0.00,,,0.00,16,Wunderground v.1.15,2013-03-02 14:54:00,
2013-03-02 07:00:00,47.8,43.8,31.09,NNE,28,0.0,0.0,86,0.00,,,0.00,28,Wunderground v.1.15,2013-03-02 15:00:00,
2013-03-02 07:06:00,47.9,43.9,31.10,NNE,28,0.0,0.0,86,0.00,,,0.00,30,Wunderground v.1.15,2013-03-02 15:06:00,
2013-03-02 07:12:00,48.0,44.0,31.10,NNE,28,0.0,0.0,86,0.00,,,0.00,37,Wunderground v.1.15,2013-03-02 15:12:00,
2013-03-02 07:18:00,48.1,44.1,31.10,NNE,28,0.0,0.0,86,0.00,,,0.00,44,Wunderground v.1.15,2013-03-02 15:18:00,
2013-03-02 07:24:00,48.2,44.2,31.10,NNE,28,0.0,0.0,86,0.00,,,0.00,53,Wunderground v.1.15,2013-03-02 15:24:00,
2013-03-02 07:30:00,48.3,44.3,31.10,NNE,28,0.0,0.0,86,0.00,,,0.00,69,Wunderground v.1.15,2013-03-02 15:30:00,
2013-03-02 07:36:00,48.4,44.4,31.10,NNE,28,0.0,0.0,86,0.00,,,0.00,81,Wunderground v.1.15,2013-03-02 15:36:00,
2013-03-02 07:42:00,48.5,44.5,31.10,NNE,28,0.0,0.0,86,0.00,,,0.00,105,Wunderground v.1.15,2013-03-02 15:42:00,
2013-03-02 07:48:00,48.8,44.8,31.10,NNE,28,0.0,0.0,86,0.00,,,0.00,160,Wunderground v.1.15,2013-03-02 15:48:00,
2013-03-02 07:54:00,49.2,45.5,31.10,NNE,28,0.0,0.0,87,0.00,,,0.00,149,Wunderground v.1.15,2013-03-02 15:54:00,
2013-03-02 07:59:00,49.6,45.9,31.10,NNE,28,0.0,0.0,87,0.00,,,0.00,167,Wunderground v.1.15,2013-03-02 15:59:00,
2013-03-02 08:06:00,50.4,47.0,31.11,NNE,28,0.0,0.0,88,0.00,,,0.00,169,Wunderground v.1.15,2013-03-02 16:06:00,
2013-03-02 08:11:00,51.1,47.7,31.11,NNE,28,0.0,0.0,88,0.00,,,0.00,171,Wunderground v.1.15,2013-03-02 16:11:00,
2013-03-02 08:18:00,51.8,48.4,31.11,NNE,28,0.0,0.0,88,0.00,,,0.00,155,Wunderground v.1.15,2013-03-02 16:18:00,
2013-03-02 08:23:00,52.3,48.9,31.11,NNE,28,0.0,0.0,88,0.00,,,0.00,193,Wunderground v.1.15,2013-03-02 16:23:00,
2013-03-02 08:30:00,52.8,49.0,31.11,NNE,28,0.0,0.0,87,0.00,,,0.00,202,Wunderground v.1.15,2013-03-02 16:30:00,
2013-03-02 08:36:00,53.2,49.4,31.11,NNE,28,0.0,0.0,87,0.00,,,0.00,223,Wunderground v.1.15,2013-03-02 16:36:00,
2013-03-02 08:42:00,53.7,49.9,31.11,NNE,28,0.0,1.0,87,0.00,,,0.00,236,Wunderground v.1.15,2013-03-02 16:42:00,
2013-03-02 08:48:00,54.2,50.4,31.11,NNE,28,0.0,1.0,87,0.00,,,0.00,241,Wunderground v.1.15,2013-03-02 16:48:00,
2013-03-02 08:53:00,54.6,50.8,31.11,NNE,28,0.0,0.0,87,0.00,,,0.00,195,Wunderground v.1.15,2013-03-02 16:53:00,
2013-03-02 09:00:00,55.2,51.1,31.11,NNE,28,0.0,0.0,86,0.00,,,0.00,288,Wunderground v.1.15,2013-03-02 17:00:00,
2013-03-02 09:05:00,55.6,51.2,31.11,NNE,28,0.0,2.0,85,0.00,,,0.00,285,Wunderground v.1.15,2013-03-02 17:05:00,
2013-03-02 09:12:00,56.1,51.7,31.11,NNE,28,1.0,1.0,85,0.00,,,0.00,466,Wunderground v.1.15,2013-03-02 17:12:00,
2013-03-02 09:18:00,56.6,51.8,31.11,NNE,28,1.0,1.0,84,0.00,,,0.00,350,Wunderground v.1.15,2013-03-02 17:18:00,
2013-03-02 09:24:00,57.1,51.7,31.11,NNE,28,1.0,1.0,82,0.00,,,0.00,369,Wunderground v.1.15,2013-03-02 17:24:00,
2013-03-02 09:30:00,57.7,52.2,31.11,NNE,28,0.0,0.0,82,0.00,,,0.00,469,Wunderground v.1.15,2013-03-02 17:30:00,
2013-03-02 09:36:00,58.4,52.3,31.10,NNE,28,0.0,0.0,80,0.00,,,0.00,438,Wunderground v.1.15,2013-03-02 17:36:00,
2013-03-02 09:42:00,59.1,52.2,31.10,NNE,28,0.0,2.0,78,0.00,,,0.00,478,Wunderground v.1.15,2013-03-02 17:42:00,
2013-03-02 09:48:00,59.7,52.1,31.10,NNE,28,1.0,2.0,76,0.00,,,0.00,483,Wunderground v.1.15,2013-03-02 17:48:00,
2013-03-02 09:54:00,60.3,51.6,31.10,NNE,28,0.0,2.0,73,0.00,,,0.00,415,Wunderground v.1.15,2013-03-02 17:54:00,
2013-03-02 10:00:00,60.8,51.3,31.10,NNE,28,1.0,1.0,71,0.00,,,0.00,350,Wunderground v.1.15,2013-03-02 18:00:00,
2013-03-02 10:06:00,61.3,51.4,31.10,NNE,28,1.0,1.0,70,0.00,,,0.00,339,Wunderground v.1.15,2013-03-02 18:06:00,
2013-03-02 10:12:00,61.9,51.6,31.10,NNE,28,0.0,0.0,69,0.00,,,0.00,585,Wunderground v.1.15,2013-03-02 18:12:00,
2013-03-02 10:18:00,62.6,51.5,31.10,NNE,28,0.0,3.0,67,0.00,,,0.00,524,Wunderground v.1.15,2013-03-02 18:18:00,
2013-03-02 10:24:00,63.4,51.8,31.10,NNE,28,0.0,0.0,66,0.00,,,0.00,457,Wunderground v.1.15,2013-03-02 18:24:00,
2013-03-02 10:29:00,64.0,51.6,31.09,NNE,28,0.0,0.0,64,0.00,,,0.00,468,Wunderground v.1.15,2013-03-02 18:29:00,
2013-03-02 10:36:00,64.6,51.7,31.09,NNE,28,0.0,0.0,63,0.00,,,0.00,701,Wunderground v.1.15,2013-03-02 18:36:00,
2013-03-02 10:42:00,65.2,51.8,31.09,NNE,28,0.0,0.0,62,0.00,,,0.00,659,Wunderground v.1.15,2013-03-02 18:42:00,
2013-03-02 10:48:00,65.9,52.1,31.09,NNE,28,0.0,1.0,61,0.00,,,0.00,334,Wunderground v.1.15,2013-03-02 18:48:00,
2013-03-02 10:54:00,66.6,51.8,31.09,NNE,28,0.0,0.0,59,0.00,,,0.00,471,Wunderground v.1.15,2013-03-02 18:54:00,
2013-03-02 11:00:00,67.0,51.7,31.08,NNE,28,0.0,0.0,58,0.00,,,0.00,554,Wunderground v.1.15,2013-03-02 19:00:00,
2013-03-02 11:06:00,67.2,51.4,31.08,NNE,28,1.0,3.0,57,0.00,,,0.00,668,Wunderground v.1.15,2013-03-02 19:06:00,
2013-03-02 11:11:00,67.5,51.2,31.08,NNE,28,1.0,1.0,56,0.00,,,0.00,765,Wunderground v.1.15,2013-03-02 19:11:00,
2013-03-02 11:17:00,68.0,51.2,31.08,NNE,28,0.0,1.0,55,0.00,,,0.00,429,Wunderground v.1.15,2013-03-02 19:17:00,
2013-03-02 11:24:00,68.5,51.7,31.08,NNE,28,0.0,1.0,55,0.00,,,0.00,513,Wunderground v.1.15,2013-03-02 19:24:00,
2013-03-02 11:30:00,68.6,51.8,31.08,NNE,28,1.0,1.0,55,0.00,,,0.00,462,Wunderground v.1.15,2013-03-02 19:30:00,
2013-03-02 11:36:00,69.2,52.8,31.08,NNE,28,0.0,1.0,56,0.00,,,0.00,547,Wunderground v.1.15,2013-03-02 19:36:00,
2013-03-02 11:42:00,70.0,53.1,31.08,NNE,28,0.0,0.0,55,0.00,,,0.00,445,Wunderground v.1.15,2013-03-02 19:42:00,
2013-03-02 11:47:00,70.5,52.5,31.07,NNE,28,0.0,0.0,53,0.00,,,0.00,432,Wunderground v.1.15,2013-03-02 19:47:00,
2013-03-02 11:54:00,70.9,52.9,31.07,NNE,28,0.0,0.0,53,0.00,,,0.00,840,Wunderground v.1.15,2013-03-02 19:54:00,
2013-03-02 12:00:00,71.6,53.0,31.06,NNE,28,0.0,0.0,52,0.00,,,0.00,807,Wunderground v.1.15,2013-03-02 20:00:00,
2013-03-02 12:05:00,71.7,52.6,31.06,NNE,28,1.0,3.0,51,0.00,,,0.00,854,Wunderground v.1.15,2013-03-02 20:05:00,
2013-03-02 12:12:00,71.9,52.8,31.06,NNE,28,1.0,1.0,51,0.00,,,0.00,508,Wunderground v.1.15,2013-03-02 20:12:00,
2013-03-02 12:18:00,72.3,53.2,31.06,NNE,28,1.0,2.0,51,0.00,,,0.00,613,Wunderground v.1.15,2013-03-02 20:18:00,
2013-03-02 12:24:00,73.0,53.3,31.05,NNE,28,0.0,1.0,50,0.00,,,0.00,352,Wunderground v.1.15,2013-03-02 20:24:00,
2013-03-02 12:30:00,72.9,52.6,31.05,NNE,28,1.0,2.0,49,0.00,,,0.00,336,Wunderground v.1.15,2013-03-02 20:30:00,
2013-03-02 12:35:00,73.0,52.7,31.04,NNE,28,0.0,2.0,49,0.00,,,0.00,323,Wunderground v.1.15,2013-03-02 20:35:00,
2013-03-02 12:42:00,73.1,52.8,31.04,NNE,28,0.0,3.0,49,0.00,,,0.00,336,Wunderground v.1.15,2013-03-02 20:42:00,
2013-03-02 12:48:00,72.8,52.5,31.05,NNE,28,1.0,5.0,49,0.00,,,0.00,654,Wunderground v.1.15,2013-03-02 20:48:00,
2013-03-02 12:56:00,72.0,52.9,31.04,NNE,28,2.0,2.0,51,0.00,,,0.00,504,Wunderground v.1.15,2013-03-02 20:56:00,
2013-03-02 13:02:00,72.1,52.4,31.03,NNE,28,1.0,1.0,50,0.00,,,0.00,413,Wunderground v.1.15,2013-03-02 21:02:00,
2013-03-02 13:08:00,72.3,52.6,31.03,NNE,28,0.0,3.0,50,0.00,,,0.00,464,Wunderground v.1.15,2013-03-02 21:08:00,
2013-03-02 13:16:00,71.9,52.2,31.03,NNE,28,2.0,4.0,50,0.00,,,0.00,353,Wunderground v.1.15,2013-03-02 21:16:00,
2013-03-02 13:21:00,71.8,52.2,31.04,NNE,28,1.0,2.0,50,0.00,,,0.00,345,Wunderground v.1.15,2013-03-02 21:21:00,
2013-03-02 13:27:00,71.7,52.6,31.03,NNE,28,1.0,2.0,51,0.00,,,0.00,424,Wunderground v.1.15,2013-03-02 21:27:00,
2013-03-02 13:33:00,71.7,52.6,31.03,NNE,28,1.0,3.0,51,0.00,,,0.00,468,Wunderground v.1.15,2013-03-02 21:33:00,
2013-03-02 13:40:00,71.9,52.2,31.02,NNE,28,1.0,1.0,50,0.00,,,0.00,387,Wunderground v.1.15,2013-03-02 21:40:00,
2013-03-02 13:46:00,72.0,52.9,31.01,NNE,28,1.0,3.0,51,0.00,,,0.00,383,Wunderground v.1.15,2013-03-02 21:46:00,
2013-03-02 13:52:00,71.9,52.8,31.01,NNE,28,1.0,1.0,51,0.00,,,0.00,408,Wunderground v.1.15,2013-03-02 21:52:00,
2013-03-02 13:58:00,72.1,53.0,31.01,NNE,28,1.0,2.0,51,0.00,,,0.00,274,Wunderground v.1.15,2013-03-02 21:58:00,
2013-03-02 14:03:00,71.9,52.8,31.01,NNE,28,1.0,2.0,51,0.00,,,0.00,281,Wunderground v.1.15,2013-03-02 22:03:00,
2013-03-02 14:09:00,71.8,52.7,31.01,NNE,28,1.0,1.0,51,0.00,,,0.00,381,Wunderground v.1.15,2013-03-02 22:09:00,
2013-03-02 14:15:00,71.9,52.8,31.00,NNE,28,1.0,2.0,51,0.00,,,0.00,415,Wunderground v.1.15,2013-03-02 22:15:00,
2013-03-02 14:22:00,71.8,52.7,31.00,NNE,28,1.0,1.0,51,0.00,,,0.00,599,Wunderground v.1.15,2013-03-02 22:22:00,
2013-03-02 14:28:00,72.0,52.9,31.00,NNE,28,0.0,1.0,51,0.00,,,0.00,309,Wunderground v.1.15,2013-03-02 22:28:00,
2013-03-02 14:34:00,72.3,52.6,31.00,NNE,28,0.0,2.0,50,0.00,,,0.00,288,Wunderground v.1.15,2013-03-02 22:34:00,
2013-03-02 14:39:00,72.6,52.9,31.00,NNE,28,0.0,2.0,50,0.00,,,0.00,309,Wunderground v.1.15,2013-03-02 22:39:00,
2013-03-02 14:46:00,72.5,52.8,31.00,NNE,28,0.0,2.0,50,0.00,,,0.00,323,Wunderground v.1.15,2013-03-02 22:46:00,
2013-03-02 14:52:00,72.5,52.8,30.99,NNE,28,1.0,1.0,50,0.00,,,0.00,292,Wunderground v.1.15,2013-03-02 22:52:00,
2013-03-02 14:58:00,72.3,52.6,30.99,NNE,28,1.0,2.0,50,0.00,,,0.00,234,Wunderground v.1.15,2013-03-02 22:58:00,
2013-03-02 15:05:00,72.1,52.4,30.99,NNE,28,0.0,1.0,50,0.00,,,0.00,167,Wunderground v.1.15,2013-03-02 23:05:00,
2013-03-02 15:12:00,71.8,52.2,30.99,NNE,28,0.0,2.0,50,0.00,,,0.00,190,Wunderground v.1.15,2013-03-02 23:12:00,
2013-03-02 15:18:00,71.4,51.8,30.99,NNE,28,0.0,2.0,50,0.00,,,0.00,151,Wunderground v.1.15,2013-03-02 23:18:00,
2013-03-02 15:24:00,71.2,51.1,30.99,NNE,28,0.0,3.0,49,0.00,,,0.00,197,Wunderground v.1.15,2013-03-02 23:24:00,
2013-03-02 15:29:00,71.0,50.9,30.99,NNE,28,0.0,0.0,49,0.00,,,0.00,165,Wunderground v.1.15,2013-03-02 23:29:00,
2013-03-02 15:36:00,70.8,50.1,30.98,NNE,28,1.0,3.0,48,0.00,,,0.00,91,Wunderground v.1.15,2013-03-02 23:36:00,
2013-03-02 15:42:00,70.5,51.5,30.98,NNE,28,1.0,1.0,51,0.00,,,0.00,76,Wunderground v.1.15,2013-03-02 23:42:00,
2013-03-02 15:48:00,70.2,51.2,30.98,NNE,28,1.0,1.0,51,0.00,,,0.00,121,Wunderground v.1.15,2013-03-02 23:48:00,
2013-03-02 15:54:00,69.8,50.9,30.99,NNE,28,0.0,1.0,51,0.00,,,0.00,123,Wunderground v.1.15,2013-03-02 23:54:00,
2013-03-02 16:00:00,69.4,50.5,30.99,NNE,28,1.0,1.0,51,0.00,,,0.00,142,Wunderground v.1.15,2013-03-03 00:00:00,
2013-03-02 16:06:00,69.0,50.1,30.99,NNE,28,1.0,2.0,51,0.00,,,0.00,120,Wunderground v.1.15,2013-03-03 00:06:00,
2013-03-02 16:12:00,68.5,49.7,30.99,NNE,28,2.0,3.0,51,0.00,,,0.00,84,Wunderground v.1.15,2013-03-03 00:12:00,
2013-03-02 16:18:00,68.0,50.2,30.98,NNE,28,1.0,3.0,53,0.00,,,0.00,95,Wunderground v.1.15,2013-03-03 00:18:00,
2013-03-02 16:24:00,67.7,49.9,30.98,NNE,28,1.0,1.0,53,0.00,,,0.00,113,Wunderground v.1.15,2013-03-03 00:24:00,
2013-03-02 16:30:00,67.5,49.8,30.97,NNE,28,0.0,0.0,53,0.00,,,0.00,102,Wunderground v.1.15,2013-03-03 00:30:00,
2013-03-02 16:36:00,67.2,50.0,30.98,NNE,28,0.0,1.0,54,0.00,,,0.00,91,Wunderground v.1.15,2013-03-03 00:36:00,
2013-03-02 16:41:00,67.0,49.8,30.97,NNE,28,0.0,1.0,54,0.00,,,0.00,72,Wunderground v.1.15,2013-03-03 00:41:00,
2013-03-02 16:48:00,66.7,50.0,30.98,NNE,28,1.0,3.0,55,0.00,,,0.00,79,Wunderground v.1.15,2013-03-03 00:48:00,
2013-03-02 16:54:00,66.2,50.5,30.98,NNE,26,2.0,3.0,57,0.00,,,0.00,65,Wunderground v.1.15,2013-03-03 00:54:00,
2013-03-02 17:00:00,65.7,50.0,30.99,NNE,19,2.0,2.0,57,0.00,,,0.00,39,Wunderground v.1.15,2013-03-03 01:00:00,
2013-03-02 17:05:00,65.4,50.2,30.98,NNE,19,1.0,2.0,58,0.00,,,0.00,33,Wunderground v.1.15,2013-03-03 01:05:00,
2013-03-02 17:12:00,65.0,50.3,30.98,NNE,19,1.0,3.0,59,0.00,,,0.00,37,Wunderground v.1.15,2013-03-03 01:12:00,
2013-03-02 17:18:00,64.9,50.2,30.98,NNE,19,1.0,3.0,59,0.00,,,0.00,47,Wunderground v.1.15,2013-03-03 01:18:00,
2013-03-02 17:24:00,64.7,50.0,30.99,NNE,18,0.0,1.0,59,0.00,,,0.00,47,Wunderground v.1.15,2013-03-03 01:24:00,
2013-03-02 17:30:00,64.6,50.4,30.99,NNE,19,0.0,0.0,60,0.00,,,0.00,26,Wunderground v.1.15,2013-03-03 01:30:00,
2013-03-02 17:36:00,64.6,50.4,30.99,NNE,19,0.0,0.0,60,0.00,,,0.00,18,Wunderground v.1.15,2013-03-03 01:36:00,
2013-03-02 17:42:00,64.5,50.3,30.99,NNE,18,0.0,0.0,60,0.00,,,0.00,14,Wunderground v.1.15,2013-03-03 01:42:00,
2013-03-02 17:48:00,64.4,50.2,30.99,NNE,19,0.0,0.0,60,0.00,,,0.00,7,Wunderground v.1.15,2013-03-03 01:48:00,
2013-03-02 17:54:00,64.4,49.8,30.99,NNE,18,0.0,0.0,59,0.00,,,0.00,0,Wunderground v.1.15,2013-03-03 01:54:00,
2013-03-02 18:00:00,64.3,49.7,30.99,NNE,18,0.0,0.0,59,0.00,,,0.00,0,Wunderground v.1.15,2013-03-03 02:00:00,
2013-03-02 18:06:00,64.2,49.6,30.99,NNE,18,0.0,0.0,59,0.00,,,0.00,0,Wunderground v.1.15,2013-03-03 02:06:00,
2013-03-02 18:12:00,64.2,49.6,30.99,NNE,19,0.0,0.0,59,0.00,,,0.00,0,Wunderground v.1.15,2013-03-03 02:12:00,
2013-03-02 18:18:00,64.0,49.8,30.99,NNE,18,0.0,3.0,60,0.00,,,0.00,0,Wunderground v.1.15,2013-03-03 02:18:00,
2013-03-02 18:26:00,63.2,50.8,31.00,East,94,2.0,5.0,64,0.00,,,0.00,0,Wunderground v.1.15,2013-03-03 02:26:00,
2013-03-02 18:32:00,62.4,50.5,31.00,East,95,2.0,2.0,65,0.00,,,0.00,0,Wunderground v.1.15,2013-03-03 02:32:00,
2013-03-02 18:37:00,61.8,50.3,31.01,East,94,1.0,2.0,66,0.00,,,0.00,0,Wunderground v.1.15,2013-03-03 02:37:00,
2013-03-02 18:43:00,61.2,50.6,31.01,East,95,2.0,3.0,68,0.00,,,0.00,0,Wunderground v.1.15,2013-03-03 02:43:00,
2013-03-02 18:50:00,60.7,50.5,31.01,East,95,1.0,1.0,69,0.00,,,0.00,0,Wunderground v.1.15,2013-03-03 02:50:00,
2013-03-02 18:56:00,60.0,50.2,31.01,East,98,1.0,5.0,70,0.00,,,0.00,0,Wunderground v.1.15,2013-03-03 02:56:00,
2013-03-02 19:01:00,59.4,50.0,31.02,East,97,1.0,1.0,71,0.00,,,0.00,0,Wunderground v.1.15,2013-03-03 03:01:00,
2013-03-02 19:08:00,59.0,49.6,31.02,East,98,0.0,1.0,71,0.00,,,0.00,0,Wunderground v.1.15,2013-03-03 03:08:00,
2013-03-02 19:14:00,58.7,49.7,31.02,East,98,0.0,2.0,72,0.00,,,0.00,0,Wunderground v.1.15,2013-03-03 03:14:00,
2013-03-02 19:19:00,58.1,49.5,31.02,East,98,2.0,2.0,73,0.00,,,0.00,0,Wunderground v.1.15,2013-03-03 03:19:00,
2013-03-02 19:25:00,57.8,49.6,31.02,East,98,1.0,2.0,74,0.00,,,0.00,0,Wunderground v.1.15,2013-03-03 03:25:00,
2013-03-02 19:32:00,57.4,49.5,31.02,East,98,1.0,1.0,75,0.00,,,0.00,0,Wunderground v.1.15,2013-03-03 03:32:00,
2013-03-02 19:38:00,57.2,49.3,31.02,East,98,0.0,1.0,75,0.00,,,0.00,0,Wunderground v.1.15,2013-03-03 03:38:00,
2013-03-02 19:44:00,57.0,49.2,31.02,East,98,0.0,0.0,75,0.00,,,0.00,0,Wunderground v.1.15,2013-03-03 03:44:00,
2013-03-02 19:50:00,56.9,49.4,31.02,East,98,0.0,0.0,76,0.00,,,0.00,0,Wunderground v.1.15,2013-03-03 03:50:00,
2013-03-02 19:56:00,56.8,49.3,31.02,East,98,0.0,0.0,76,0.00,,,0.00,0,Wunderground v.1.15,2013-03-03 03:56:00,
2013-03-02 20:02:00,56.8,49.3,31.02,East,98,0.0,0.0,76,0.00,,,0.00,0,Wunderground v.1.15,2013-03-03 04:02:00,
2013-03-02 20:08:00,56.8,49.3,31.02,East,98,0.0,0.0,76,0.00,,,0.00,0,Wunderground v.1.15,2013-03-03 04:08:00,
2013-03-02 20:14:00,56.8,49.3,31.01,East,98,0.0,0.0,76,0.00,,,0.00,0,Wunderground v.1.15,2013-03-03 04:14:00,
2013-03-02 20:20:00,56.8,49.3,31.01,East,98,0.0,0.0,76,0.00,,,0.00,0,Wunderground v.1.15,2013-03-03 04:20:00,
2013-03-02 20:26:00,56.8,49.7,31.00,East,98,0.0,0.0,77,0.00,,,0.00,0,Wunderground v.1.15,2013-03-03 04:26:00,
2013-03-02 20:32:00,56.8,49.7,31.00,East,98,0.0,0.0,77,0.00,,,0.00,0,Wunderground v.1.15,2013-03-03 04:32:00,
2013-03-02 20:38:00,56.8,49.7,31.01,East,98,0.0,2.0,77,0.00,,,0.00,0,Wunderground v.1.15,2013-03-03 04:38:00,
2013-03-02 20:44:00,56.8,49.7,31.01,East,98,1.0,2.0,77,0.00,,,0.00,0,Wunderground v.1.15,2013-03-03 04:44:00,
2013-03-02 20:50:00,56.8,49.7,31.00,East,98,0.0,1.0,77,0.00,,,0.00,0,Wunderground v.1.15,2013-03-03 04:50:00,
2013-03-02 20:56:00,56.8,49.7,31.00,East,98,0.0,1.0,77,0.00,,,0.00,0,Wunderground v.1.15,2013-03-03 04:56:00,
2013-03-02 21:00:00,56.8,49.7,31.01,East,98,0.0,0.0,77,0.00,,,0.00,0,Wunderground v.1.15,2013-03-03 05:00:00,
2013-03-02 21:04:00,56.8,49.7,31.01,East,98,0.0,0.0,77,0.00,,,0.00,0,Wunderground v.1.15,2013-03-03 05:04:00,
2013-03-02 21:05:00,56.8,49.7,31.01,East,98,0.0,0.0,77,0.00,,,0.00,0,Wunderground v.1.15,2013-03-03 05:05:00,
2013-03-02 21:12:00,56.7,49.6,31.01,East,98,0.0,0.0,77,0.00,,,0.00,0,Wunderground v.1.15,2013-03-03 05:12:00,
2013-03-02 21:18:00,56.7,49.6,31.01,East,98,0.0,0.0,77,0.00,,,0.00,0,Wunderground v.1.15,2013-03-03 05:18:00,
2013-03-02 21:20:00,56.7,49.6,31.01,East,98,0.0,0.0,77,0.00,,,0.00,0,Wunderground v.1.15,2013-03-03 05:20:00,
2013-03-02 21:26:00,56.7,49.6,31.01,East,98,0.0,0.0,77,0.00,,,0.00,0,Wunderground v.1.15,2013-03-03 05:26:00,
2013-03-02 21:32:00,56.6,49.5,31.01,East,98,0.0,0.0,77,0.00,,,0.00,0,Wunderground v.1.15,2013-03-03 05:32:00,
2013-03-02 21:38:00,56.6,49.5,31.01,East,98,0.0,0.0,77,0.00,,,0.00,0,Wunderground v.1.15,2013-03-03 05:38:00,
2013-03-02 21:44:00,56.5,49.4,31.01,East,98,0.0,0.0,77,0.00,,,0.00,0,Wunderground v.1.15,2013-03-03 05:44:00,
2013-03-02 21:50:00,56.5,49.4,31.01,East,98,0.0,0.0,77,0.00,,,0.00,0,Wunderground v.1.15,2013-03-03 05:50:00,
2013-03-02 21:56:00,56.4,49.3,31.01,East,98,0.0,0.0,77,0.00,,,0.00,0,Wunderground v.1.15,2013-03-03 05:56:00,
2013-03-02 22:01:00,56.4,49.3,31.02,East,98,0.0,0.0,77,0.00,,,0.00,0,Wunderground v.1.15,2013-03-03 06:01:00,
2013-03-02 22:08:00,56.3,49.2,31.02,East,98,0.0,0.0,77,0.00,,,0.00,0,Wunderground v.1.15,2013-03-03 06:08:00,
2013-03-02 22:14:00,56.3,49.5,31.02,East,98,0.0,0.0,78,0.00,,,0.00,0,Wunderground v.1.15,2013-03-03 06:14:00,
2013-03-02 22:20:00,56.2,49.4,31.02,East,98,1.0,1.0,78,0.00,,,0.00,0,Wunderground v.1.15,2013-03-03 06:20:00,
2013-03-02 22:26:00,56.2,49.4,31.02,East,98,1.0,1.0,78,0.00,,,0.00,0,Wunderground v.1.15,2013-03-03 06:26:00,
2013-03-02 22:32:00,56.1,49.3,31.01,East,98,0.0,0.0,78,0.00,,,0.00,0,Wunderground v.1.15,2013-03-03 06:32:00,
2013-03-02 22:38:00,56.1,49.3,31.01,East,98,0.0,0.0,78,0.00,,,0.00,0,Wunderground v.1.15,2013-03-03 06:38:00,
2013-03-02 22:44:00,56.1,49.3,31.01,East,98,0.0,0.0,78,0.00,,,0.00,0,Wunderground v.1.15,2013-03-03 06:44:00,
2013-03-02 22:50:00,56.1,49.3,31.01,East,98,0.0,0.0,78,0.00,,,0.00,0,Wunderground v.1.15,2013-03-03 06:50:00,
2013-03-02 22:56:00,56.1,49.7,31.01,East,98,0.0,0.0,79,0.00,,,0.00,0,Wunderground v.1.15,2013-03-03 06:56:00,
2013-03-02 23:02:00,56.1,49.3,31.01,East,98,0.0,0.0,78,0.00,,,0.00,0,Wunderground v.1.15,2013-03-03 07:02:00,
2013-03-02 23:08:00,56.1,49.3,31.01,East,98,0.0,0.0,78,0.00,,,0.00,0,Wunderground v.1.15,2013-03-03 07:08:00,
2013-03-02 23:14:00,56.0,49.6,31.01,East,98,0.0,0.0,79,0.00,,,0.00,0,Wunderground v.1.15,2013-03-03 07:14:00,
2013-03-02 23:20:00,56.0,49.6,31.01,East,98,0.0,0.0,79,0.00,,,0.00,0,Wunderground v.1.15,2013-03-03 07:20:00,
2013-03-02 23:26:00,56.0,49.6,31.01,East,98,0.0,0.0,79,0.00,,,0.00,0,Wunderground v.1.15,2013-03-03 07:26:00,
2013-03-02 23:32:00,55.9,49.1,31.02,East,98,0.0,0.0,78,0.00,,,0.00,0,Wunderground v.1.15,2013-03-03 07:32:00,
2013-03-02 23:38:00,55.9,49.1,31.01,East,98,0.0,0.0,78,0.00,,,0.00,0,Wunderground v.1.15,2013-03-03 07:38:00,
2013-03-02 23:43:00,55.8,49.0,31.01,East,98,0.0,0.0,78,0.00,,,0.00,0,Wunderground v.1.15,2013-03-03 07:43:00,
2013-03-02 23:50:00,55.7,49.3,31.01,East,98,0.0,0.0,79,0.00,,,0.00,0,Wunderground v.1.15,2013-03-03 07:50:00,
2013-03-02 23:56:00,55.7,49.3,31.01,East,98,0.0,0.0,79,0.00,,,0.00,0,Wunderground v.1.15,2013-03-03 07:56:00,